Theta_e
305 305 305 305 305 303 302 303 300 299 301 299 299 298 298 298 297 298 297 297 299 301 302 301 302 301 301 302 303 304 304 305 303 301 301 303 308 311 310 311 310 308 305 303 303 304 305 305 304 303 304 305 305 307 307 308 317 325 330 337 338 334 335 334 332 331 328 322 318 317 317 319 318 312 310 311 310 310 310 309 308 308 308 308 311 313 314 314
305 305 305 305 306 304 302 302 301 300 301 299 298 298 298 298 297 297 297 297 298 300 301 302 302 301 301 302 303 304 304 305 303 301 301 303 308 310 310 310 308 305 303 303 303 303 306 307 304 304 308 306 304 308 309 308 318 330 331 333 336 333 331 330 329 326 324 321 318 317 317 318 317 315 313 316 315 314 315 313 311 310 308 309 310 312 313 312
305 305 305 305 305 305 303 302 302 301 299 298 298 298 298 297 297 297 297 297 297 299 301 302 302 301 301 302 303 304 304 305 304 301 300 303 308 309 310 309 306 303 303 303 303 302 305 306 302 305 311 309 306 309 311 311 318 326 332 336 333 329 328 326 326 324 322 320 317 318 318 317 316 316 316 316 316 316 314 312 313 312 309 308 309 310 310 310
305 305 305 305 305 305 304 302 302 300 298 298 298 298 297 297 297 297 297 297 297 297 299 301 302 301 301 302 304 303 304 306 304 300 300 303 306 308 308 307 303 303 304 302 303 303 304 303 301 306 311 309 308 310 311 312 316 322 330 334 324 323 329 324 322 322 320 318 317 318 318 318 317 316 316 317 320 317 309 306 308 309 308 307 308 308 308 308
305 305 304 305 305 305 304 303 301 300 297 297 297 297 297 297 297 298 298 298 297 297 298 301 301 301 301 302 304 303 306 308 303 300 301 302 303 306 306 304 302 303 304 302 304 304 303 302 303 310 312 308 309 310 309 310 315 322 320 318 316 322 328 321 318 319 318 318 317 318 319 317 314 311 311 316 319 313 306 303 303 305 306 307 307 307 306 305
304 304 305 305 305 305 304 303 302 300 297 296 297 297 297 297 298 298 298 298 297 297 298 300 301 301 301 303 304 303 307 307 301 301 301 301 302 304 306 304 303 303 303 303 304 305 306 307 307 311 314 310 309 311 311 311 316 325 318 312 314 319 322 318 317 318 318 319 318 316 315 312 311 309 305 307 309 305 303 303 303 304 306 307 306 305 304 304
304 304 305 305 305 305 303 302 302 301 297 297 296 296 297 298 299 298 298 298 297 297 298 299 301 301 300 303 303 304 307 304 300 301 301 301 302 304 306 304 303 303 303 303 305 309 312 315 313 311 314 309 308 315 316 315 318 323 319 312 312 314 315 315 315 316 317 318 315 313 312 310 313 311 306 305 304 303 303 303 303 304 305 305 304 303 303 302
304 304 304 305 305 304 304 303 302 302 300 298 297 297 299 299 300 300 299 299 299 299 299 300 301 300 302 304 306 309 309 302 300 302 301 301 302 304 306 305 304 303 304 304 304 309 312 315 312 309 311 307 307 317 319 319 319 319 316 312 311 311 311 311 311 312 313 313 313 312 311 309 309 309 306 305 305 303 304 303 302 303 303 302 302 302 302 301
304 304 304 304 305 304 304 303 302 302 300 298 297 298 299 300 300 301 301 300 300 299 299 300 300 301 303 303 305 309 305 300 301 301 301 302 302 305 306 305 305 303 304 304 304 307 310 312 310 308 309 307 310 317 319 322 321 315 313 311 311 311 310 311 311 312 311 311 312 312 311 309 308 310 308 305 305 305 304 304 303 302 301 300 301 301 300 300
304 304 304 304 304 304 304 303 303 301 299 297 297 299 300 300 300 301 301 300 300 299 300 300 300 302 302 303 307 307 302 301 301 301 302 302 303 305 306 305 305 304 303 304 304 305 308 309 308 307 308 308 314 317 318 322 317 310 311 311 311 312 311 311 311 312 312 311 312 313 313 312 311 313 312 305 305 306 304 305 304 302 301 300 300 299 299 299
304 304 304 304 304 304 303 302 301 300 298 297 298 300 301 300 301 301 302 301 300 299 300 300 301 302 301 304 310 306 300 301 301 301 303 302 304 305 306 306 305 305 303 303 303 303 305 306 305 306 307 309 316 316 314 315 312 311 313 312 312 312 312 313 313 314 314 313 313 313 315 315 313 312 309 304 304 307 306 305 304 302 301 300 300 299 299 298
303 303 304 304 304 304 303 301 300 298 297 298 299 300 301 301 301 301 301 302 302 301 302 302 302 302 302 304 306 303 300 301 301 302 303 303 304 305 305 305 305 305 304 303 303 303 304 305 306 309 308 312 316 315 313 311 312 314 315 315 315 315 314 314 314 315 315 315 314 316 321 320 313 309 306 304 305 306 306 305 304 303 301 300 300 299 299 297
303 303 303 304 304 304 303 301 298 298 298 299 300 300 301 302 303 302 301 301 301 301 302 303 303 303 304 305 303 301 301 302 302 302 303 304 305 304 304 304 304 305 304 303 302 302 304 305 307 310 311 314 315 314 313 311 315 317 316 318 318 319 318 314 315 315 315 315 312 317 328 324 312 307 306 305 305 306 306 304 304 304 302 301 300 300 300 298
303 303 303 303 303 303 303 300 298 297 298 300 300 301 302 302 303 303 301 300 300 301 302 303 304 303 304 304 302 301 302 302 302 303 303 303 304 304 303 303 304 304 303 303 302 303 304 304 307 310 311 315 314 312 313 316 319 319 320 321 322 324 319 314 315 316 316 314 312 318 328 322 312 307 305 305 305 306 305 303 304 305 303 302 301 302 302 299
303 303 303 303 303 303 303 300 297 297 298 300 300 301 301 302 303 302 301 301 301 301 302 303 302 303 305 303 301 302 302 302 302 302 302 303 303 303 303 303 303 304 303 303 303 304 304 305 310 314 313 312 313 315 318 322 322 321 324 325 323 323 318 315 314 315 317 314 312 321 326 319 312 307 305 306 306 306 306 304 305 306 305 304 302 302 303 300
303 303 303 303 303 303 303 301 298 297 297 299 300 301 301 302 302 302 302 301 302 301 302 303 301 303 307 304 301 302 301 301 302 302 302 302 302 303 303 304 303 304 304 304 305 305 305 308 311 314 315 314 316 319 320 323 323 322 324 324 323 321 319 318 314 312 315 315 315 320 322 319 314 307 304 305 305 305 305 304 305 307 306 304 304 303 304 303
303 303 303 303 303 303 303 302 299 296 297 298 300 300 301 302 302 302 302 302 303 302 301 302 300 302 306 303 302 303 301 300 301 302 302 302 302 303 303 304 303 303 305 305 305 306 306 310 312 313 317 318 318 320 323 325 325 323 323 322 320 320 320 320 317 312 312 318 320 318 317 315 311 307 304 304 306 306 305 304 304 305 305 304 305 306 305 305
302 302 302 302 302 302 303 302 300 296 296 298 299 300 301 301 301 302 302 302 302 302 303 302 301 305 306 304 302 301 300 300 301 302 302 303 303 303 304 304 302 302 307 307 305 307 308 312 315 316 319 318 319 321 322 324 324 323 322 321 320 320 320 319 317 313 312 317 319 317 316 310 308 306 304 304 304 305 304 304 304 303 303 305 306 306 306 306
302 302 302 302 302 302 303 302 300 297 296 297 299 300 298 299 301 302 301 301 303 304 304 302 302 304 305 304 301 300 300 300 302 302 302 303 303 303 302 302 303 305 309 310 307 308 311 316 318 319 320 318 318 318 320 324 323 322 321 320 320 319 317 315 313 309 309 315 315 315 315 310 308 306 304 304 303 303 303 303 305 303 303 305 306 306 304 306
302 302 302 302 302 302 303 302 300 297 297 297 299 299 298 301 306 305 302 301 301 300 301 303 301 301 302 302 300 299 302 303 303 302 302 303 303 303 301 302 308 310 310 310 309 308 312 317 317 315 316 314 313 311 315 321 320 320 320 319 319 318 315 312 311 308 308 314 313 312 314 311 309 307 305 304 303 303 303 303 305 304 305 305 305 305 304 305
302 302 302 302 302 303 303 303 301 299 298 297 298 297 298 304 304 303 303 301 298 296 299 301 298 298 299 299 299 298 302 304 303 302 302 303 302 302 302 305 311 310 308 309 309 310 313 315 312 308 307 307 309 310 314 319 319 319 319 318 317 316 314 310 310 309 308 315 313 310 313 311 308 307 306 304 303 304 303 302 304 304 304 305 304 305 305 305
302 302 302 302 302 302 302 303 301 299 298 298 298 297 297 300 301 300 303 303 299 296 297 298 297 299 299 298 298 298 301 304 305 304 302 302 304 304 305 308 311 309 308 310 311 313 315 313 309 305 304 305 310 313 316 319 319 318 317 318 317 314 314 312 310 310 311 314 313 311 313 312 308 306 305 304 303 304 303 303 304 303 304 304 304 305 305 306
301 301 301 301 300 300 301 301 301 299 299 298 298 300 299 300 301 300 302 304 302 298 299 300 300 302 301 299 298 299 303 304 305 305 301 304 307 306 308 310 310 309 310 312 313 314 314 311 306 304 305 310 314 315 317 318 317 318 318 319 316 314 318 318 312 311 313 314 313 313 314 313 311 308 305 305 304 304 304 304 304 305 304 304 304 304 305 306
301 301 301 300 299 299 301 301 301 300 299 299 299 302 302 301 301 301 302 302 302 301 299 299 299 300 301 299 298 300 304 303 303 303 301 305 307 305 307 307 308 309 307 309 311 311 310 305 303 306 309 314 317 316 317 318 317 317 317 318 317 317 320 317 313 314 315 315 314 315 319 318 315 314 312 308 304 304 304 304 304 305 305 305 305 305 305 306
301 301 300 299 299 300 301 300 301 301 300 300 300 301 301 302 301 301 304 303 303 304 300 298 299 299 298 299 299 300 303 303 302 302 300 303 305 306 306 304 306 309 306 307 310 309 308 304 305 311 313 314 316 316 316 317 317 317 315 316 315 316 318 314 314 320 323 322 316 315 325 326 317 316 318 312 307 306 304 303 304 304 304 304 305 305 305 306
301 301 299 299 299 300 301 301 301 301 301 300 300 301 301 302 301 300 306 308 305 304 302 300 300 300 298 299 299 300 304 305 301 300 301 301 302 305 307 306 306 308 306 307 308 307 306 306 309 312 313 315 316 316 315 315 319 318 314 313 314 315 317 316 319 325 326 323 314 312 324 328 320 318 318 316 314 312 309 307 305 304 303 303 303 304 303 306
300 300 298 299 299 300 302 302 300 301 302 300 299 300 301 301 300 299 305 308 306 302 301 301 300 300 300 298 298 302 306 304 302 301 300 301 301 303 308 309 308 307 304 306 309 306 305 308 311 312 313 316 316 315 312 313 319 317 311 312 315 316 318 320 324 323 318 317 315 314 318 323 326 321 315 316 318 317 316 314 311 308 305 303 303 303 302 303
298 299 298 299 299 300 302 301 299 301 301 300 299 300 301 300 299 301 307 307 304 301 300 301 300 299 300 297 299 305 303 301 304 303 299 300 302 304 307 307 306 306 303 306 311 306 303 306 307 309 314 315 313 311 309 311 316 313 309 312 313 314 317 318 321 319 315 319 322 317 313 318 328 322 312 314 317 318 318 317 317 315 311 307 304 303 302 301
298 299 297 298 299 299 300 301 301 301 300 299 299 299 300 299 299 304 309 306 303 301 299 300 301 300 301 301 302 303 300 300 303 301 299 300 302 303 306 304 304 305 304 306 309 304 303 303 300 304 311 312 308 306 309 313 314 310 309 312 313 312 314 316 318 318 318 324 324 316 311 314 325 324 315 314 317 318 318 316 317 317 315 313 309 306 304 303
298 299 297 298 300 299 299 300 301 301 299 298 299 299 299 300 307 313 311 304 301 300 300 301 300 300 302 304 304 302 301 301 301 300 302 301 301 303 303 302 303 306 305 304 305 305 303 301 299 302 307 307 306 306 309 312 311 311 313 314 315 317 319 319 320 320 322 325 319 312 310 311 318 325 320 318 319 318 317 317 317 317 317 316 313 310 307 305
299 299 297 298 299 300 300 299 299 299 299 299 299 299 299 302 310 313 306 302 302 302 303 302 301 301 302 301 301 301 303 303 301 303 304 301 302 303 303 305 307 310 311 307 306 306 303 303 302 303 303 305 309 309 310 312 311 314 319 316 316 319 320 321 320 320 324 324 314 309 310 310 314 320 317 317 319 316 316 320 318 318 318 315 312 309 307 305
299 299 299 297 297 299 300 298 298 298 299 299 297 300 305 306 307 305 300 301 303 302 300 300 301 302 302 301 300 300 303 303 301 301 301 301 302 300 301 304 306 312 313 308 309 309 306 305 303 304 304 304 310 313 313 316 316 316 318 316 317 318 319 321 318 317 321 318 309 307 309 311 315 318 315 315 316 313 314 316 315 314 313 310 307 305 304 304
299 299 299 298 297 297 298 297 298 299 299 298 299 306 313 311 305 300 300 302 301 297 297 299 301 300 301 303 301 300 301 300 300 300 299 301 302 299 299 298 299 309 312 307 310 313 311 307 304 308 309 305 308 315 316 317 316 315 317 318 319 319 320 320 313 311 315 313 307 306 309 314 317 314 313 314 311 307 306 308 310 310 308 307 305 303 302 303
300 299 298 299 297 296 297 297 298 299 298 298 304 311 311 308 302 298 300 301 297 296 297 298 300 300 300 300 298 299 302 300 299 300 300 303 305 302 302 299 298 305 310 308 309 310 313 311 306 306 307 304 306 309 312 316 316 314 314 316 318 318 321 321 315 315 316 313 310 308 310 317 318 310 309 310 306 302 303 304 306 307 306 305 305 303 303 303
302 300 298 299 298 297 297 297 298 298 296 300 310 312 308 305 301 299 302 301 298 298 297 295 300 304 303 301 299 298 300 300 299 301 301 302 302 300 299 299 298 300 308 312 308 307 311 308 304 304 302 303 305 304 306 313 317 312 309 314 315 313 316 314 310 313 314 314 315 312 312 316 314 306 305 306 303 302 304 306 307 308 308 307 308 307 306 305
302 300 299 299 298 297 296 297 298 297 298 307 313 308 304 304 300 298 300 298 296 298 298 298 302 305 305 304 303 299 298 298 300 304 303 298 298 298 297 298 297 297 304 310 308 308 310 306 304 305 303 302 304 303 304 309 316 314 309 311 309 306 312 314 309 307 307 312 314 311 314 317 311 306 305 304 302 302 305 308 308 309 310 311 310 308 307 306
302 300 299 298 298 298 296 297 298 297 301 313 314 302 298 298 295 296 297 295 295 296 300 303 301 299 301 303 303 300 300 299 300 306 304 299 300 299 297 298 296 295 298 302 306 306 307 306 304 306 305 301 301 303 304 303 309 315 312 309 305 303 310 315 316 314 309 310 314 311 313 316 313 311 307 302 302 303 304 306 306 306 309 310 308 306 306 305
301 300 299 299 299 297 296 297 297 298 306 315 312 302 297 295 294 296 296 294 295 297 301 304 298 295 298 301 301 298 300 302 302 304 304 302 303 298 296 298 297 296 295 298 306 305 305 309 307 305 305 301 302 308 309 305 304 308 309 305 304 310 314 310 312 318 314 310 315 313 311 310 312 315 311 305 305 305 303 304 305 306 306 306 305 305 305 305
301 302 302 299 298 298 299 297 295 302 315 317 310 301 297 296 295 296 295 294 295 297 300 300 296 297 299 299 299 296 298 301 301 302 303 303 302 298 295 296 297 299 296 297 304 303 305 311 307 303 302 303 308 311 311 310 305 304 307 304 304 312 315 310 307 313 316 313 312 312 313 314 312 314 315 310 308 307 305 305 306 306 304 303 304 303 304 306
301 304 302 298 299 298 296 296 298 308 314 306 301 298 295 296 297 296 295 295 295 296 298 299 296 298 300 297 296 296 297 299 298 299 301 300 300 297 295 295 297 299 297 298 301 299 305 313 307 303 306 309 310 303 302 305 303 305 309 305 305 304 304 305 303 303 310 317 316 311 316 324 316 309 311 309 307 307 308 309 308 307 307 307 307 306 306 306
301 306 302 297 299 296 297 303 303 302 304 298 296 297 296 297 297 296 295 294 294 295 295 297 298 298 299 298 296 296 299 301 298 298 298 297 299 297 294 294 296 297 298 301 302 299 305 313 308 306 309 309 304 297 295 297 297 301 304 301 305 305 307 312 306 299 301 310 314 311 314 324 312 301 302 301 302 304 306 309 308 307 310 310 309 309 307 306
306 310 301 297 298 295 302 312 298 293 302 300 296 296 297 298 296 294 294 293 295 296 294 295 297 298 299 298 297 298 301 302 299 298 298 297 298 297 295 294 295 296 298 302 301 297 302 311 309 305 304 299 295 293 293 295 295 297 297 297 301 303 311 320 311 303 300 299 300 301 308 317 305 297 300 301 301 303 302 305 307 308 310 310 309 309 307 306
315 309 298 296 297 296 304 311 300 297 303 298 293 293 295 298 297 294 293 293 295 296 296 296 296 296 297 296 296 297 299 299 297 297 298 298 297 295 295 295 295 295 298 301 300 297 303 313 308 303 304 302 296 293 292 292 294 298 297 295 297 297 304 311 307 307 307 302 301 301 306 313 304 298 303 303 301 302 301 303 307 309 310 309 308 309 307 307
313 303 298 297 295 298 307 312 308 305 302 296 295 295 293 295 297 296 294 296 297 296 297 298 295 294 295 294 296 296 296 297 297 295 296 297 296 295 296 296 295 295 297 299 299 299 305 310 307 306 311 312 308 304 301 297 296 300 299 295 295 296 298 301 300 303 308 305 304 307 311 312 302 298 302 301 300 301 301 302 305 307 309 309 308 308 306 307
306 302 304 300 294 296 303 307 310 309 302 299 299 297 296 295 296 296 295 295 295 295 297 296 293 295 295 294 296 296 294 296 297 296 296 297 297 296 296 297 295 296 297 294 295 300 304 306 309 314 314 313 317 316 312 306 301 299 297 294 295 296 297 300 300 304 306 300 297 305 312 307 299 298 299 299 300 300 299 300 300 302 305 307 307 307 307 307
306 306 308 305 299 299 298 296 303 307 305 305 302 297 298 299 296 295 295 296 294 293 295 294 293 296 297 296 299 300 297 295 297 299 298 298 299 297 295 297 297 297 297 294 293 298 302 302 305 315 317 314 317 310 300 299 301 299 298 296 297 296 295 299 302 307 309 302 300 307 306 300 299 299 299 300 301 301 300 300 299 300 302 305 305 306 307 306
306 308 306 302 302 305 302 297 302 308 305 305 303 298 298 301 298 295 295 296 294 293 293 294 294 298 299 298 301 303 299 297 298 300 298 298 299 297 295 296 296 297 298 296 293 296 307 304 298 304 310 303 301 298 291 294 298 298 299 298 300 297 294 297 302 303 302 302 307 308 298 298 302 300 299 302 302 302 303 302 302 302 302 302 302 303 303 303
302 304 300 298 301 305 304 302 305 307 303 303 302 298 300 303 300 298 297 295 294 293 294 296 295 297 300 299 300 302 301 300 300 298 297 298 299 299 298 295 295 296 296 296 294 297 310 306 292 295 303 295 291 293 292 295 296 294 298 300 301 298 296 298 302 298 297 303 310 304 296 299 303 301 300 302 301 302 303 301 300 299 300 301 300 301 302 304
299 302 297 295 301 304 302 300 303 306 305 305 304 301 304 306 302 299 296 295 296 294 294 298 297 297 298 298 301 305 304 301 301 300 299 300 299 299 300 298 297 295 295 299 297 294 304 304 291 292 299 294 291 293 292 294 295 295 299 300 299 299 298 298 298 295 296 301 303 298 297 300 301 300 302 301 298 300 299 298 298 299 301 303 302 303 304 305
303 306 303 301 303 302 300 300 303 309 306 303 305 302 303 307 304 300 296 296 298 296 294 298 299 296 296 298 302 305 301 298 301 300 299 300 299 299 300 300 297 296 297 300 297 293 298 299 290 291 297 294 293 294 293 294 296 297 300 297 295 298 297 295 296 296 296 298 297 295 298 302 299 296 298 299 297 297 298 299 301 302 303 304 303 305 307 307
300 300 301 310 309 302 302 301 302 310 307 304 306 303 302 306 304 301 298 295 297 299 296 297 299 296 295 297 301 301 296 295 298 297 296 297 298 298 298 296 295 298 302 300 297 300 305 300 290 294 299 297 294 295 297 295 294 297 301 301 297 299 300 298 299 299 300 302 300 296 299 305 301 294 295 299 299 300 301 303 305 306 306 306 307 307 307 308
298 295 298 314 312 300 301 302 300 305 305 304 305 302 302 305 301 300 301 297 293 296 295 295 299 299 297 299 299 296 294 295 295 294 293 294 296 296 296 294 293 299 304 301 299 299 302 302 299 300 303 299 294 296 301 297 297 304 308 303 298 298 300 300 299 298 297 300 303 302 304 306 300 296 297 299 300 301 304 306 306 305 307 308 308 307 306 306
Wind_Speed
12 13 13 13 14 13 12 11 10 8 8 8 7 8 8 9 10 10 10 10 7 5 3 4 5 6 7 7 4 3 4 5 10 20 16 10 14 14 14 15 14 15 14 13 12 6 4 5 7 6 4 3 3 0 0 2 1 2 2 4 4 5 5 6 9 7 7 10 9 8 5 9 8 2 4 4 9 7 8 7 6 8 9 10 11 11 10 7
13 13 13 13 14 13 12 11 10 9 9 8 8 9 9 9 10 10 9 9 7 5 4 4 5 5 7 8 5 4 5 5 7 14 13 12 15 14 14 16 15 14 13 12 12 9 5 4 7 6 4 2 2 1 1 2 2 3 3 4 3 5 3 2 8 7 8 13 12 8 6 8 9 5 3 4 5 6 9 7 6 9 9 11 13 11 9 8
13 14 14 14 14 14 12 11 10 10 9 9 9 10 10 9 10 10 10 10 8 5 5 5 5 5 8 8 6 6 4 2 4 8 12 15 16 15 15 16 14 14 13 11 10 8 4 2 4 4 4 3 1 1 2 2 1 2 3 4 3 4 2 3 5 6 7 15 15 9 6 8 6 3 3 7 9 7 7 5 4 8 6 7 9 10 11 10
14 14 14 14 14 14 13 12 10 9 9 9 9 10 11 11 11 12 12 12 9 7 5 5 5 4 7 7 6 6 2 4 3 6 13 16 15 14 15 15 14 14 12 10 8 6 4 0 2 3 4 2 3 1 3 1 1 2 3 3 3 2 3 4 5 10 10 10 13 11 10 9 4 4 4 7 9 6 4 3 4 7 6 6 7 8 10 11
14 14 14 14 15 14 13 12 11 10 10 10 10 11 12 13 14 14 14 12 9 8 6 6 5 4 6 7 7 5 3 4 3 7 14 15 14 12 12 14 13 13 11 8 6 4 3 2 4 4 4 2 1 2 2 2 2 4 3 0 4 2 4 3 6 15 12 9 10 11 10 7 4 6 5 5 7 4 2 3 4 5 6 7 7 8 10 11
14 14 14 14 15 14 13 13 12 11 10 10 11 11 12 12 13 14 12 9 7 7 6 6 4 3 5 6 5 4 4 2 5 11 14 14 14 11 10 13 13 12 9 6 5 4 2 3 5 3 3 3 3 4 1 3 3 5 2 4 6 3 5 4 6 12 13 14 9 6 6 5 8 7 6 9 7 3 2 2 3 6 8 9 9 9 9 9
14 14 14 15 15 15 14 13 12 12 11 11 11 10 10 10 12 11 9 7 6 7 6 4 2 2 4 4 2 4 5 0 9 13 13 15 15 11 9 11 12 11 8 7 8 4 3 5 5 3 4 4 3 3 2 4 6 6 3 4 7 7 8 6 7 8 12 15 8 6 8 6 9 7 4 8 6 4 4 5 7 10 10 11 10 9 9 9
15 15 15 15 15 15 14 13 12 12 11 11 10 9 9 9 10 9 9 7 6 6 4 2 1 1 3 2 1 4 3 3 12 13 13 15 14 10 8 9 12 12 9 11 9 2 3 5 3 2 4 2 3 4 3 6 8 6 4 2 4 7 8 10 11 11 12 13 10 12 12 7 8 7 5 6 5 5 5 7 9 11 10 10 9 8 9 9
15 16 16 16 16 15 14 13 12 11 11 10 10 9 8 8 8 9 10 8 5 3 1 0 1 1 1 1 4 3 2 5 11 12 13 15 13 10 7 7 12 12 10 11 10 5 3 2 1 2 4 2 3 4 0 4 3 3 5 4 7 8 8 11 12 12 10 7 10 15 12 6 5 5 6 5 4 4 5 7 7 8 9 7 7 7 8 7
16 16 16 16 16 16 14 13 12 11 10 9 9 9 8 7 6 7 10 9 5 1 1 1 1 2 1 2 6 3 3 8 9 10 13 14 13 9 6 6 9 11 9 9 11 9 4 3 1 2 4 3 3 2 4 4 5 7 12 10 11 11 7 9 12 10 9 5 6 14 10 4 4 3 5 3 4 3 5 7 6 7 7 5 6 6 6 7
16 16 16 16 16 16 15 13 11 9 8 8 8 8 8 7 5 5 7 8 6 3 2 1 3 4 4 5 5 2 6 10 8 10 12 13 12 7 5 6 7 9 9 8 8 6 4 2 1 2 2 2 4 5 5 9 12 13 17 15 12 12 9 8 9 6 5 4 4 12 12 5 6 4 4 2 2 3 5 7 6 6 5 5 5 4 6 8
17 17 17 16 16 16 15 12 10 7 6 7 7 7 7 7 6 3 3 6 6 4 2 2 4 4 5 7 4 1 9 10 8 9 10 11 8 4 5 6 6 6 7 6 5 4 5 3 3 3 0 2 5 5 5 8 12 10 13 15 8 10 10 7 5 3 4 4 1 5 8 4 6 4 3 2 2 3 5 6 5 5 4 4 4 3 4 6
17 17 17 16 16 16 15 13 9 6 4 5 5 6 7 7 7 4 1 3 5 5 3 0 3 3 3 4 1 5 10 8 7 8 8 7 5 2 4 5 6 5 5 5 4 5 4 3 4 3 1 4 4 4 6 4 5 6 8 12 7 7 7 6 3 3 5 4 4 2 4 1 3 2 2 2 2 3 4 4 4 4 3 3 2 2 2 3
17 16 16 16 16 16 16 13 8 4 2 4 5 8 10 10 9 7 3 3 5 5 3 1 1 2 3 1 2 6 10 7 7 10 10 8 5 2 2 4 4 3 4 4 3 3 4 4 3 3 1 3 5 7 8 2 3 5 6 5 4 5 2 4 3 3 4 1 4 2 3 1 2 2 2 1 1 2 3 3 3 3 2 2 1 1 1 1
17 17 16 16 16 17 16 13 8 3 2 4 8 13 15 13 10 9 8 7 7 6 4 3 2 2 3 0 2 7 10 8 10 13 12 10 7 3 4 4 2 2 2 2 2 3 5 4 2 4 2 3 8 10 7 3 3 3 5 2 2 3 3 2 3 3 2 0 4 4 3 1 2 3 2 2 1 2 3 3 3 2 2 1 1 1 0 2
17 17 16 16 16 16 16 13 8 4 4 5 9 16 19 17 10 7 9 10 11 10 7 4 4 3 4 1 5 8 8 9 12 14 12 10 7 5 6 4 2 2 1 0 2 3 3 3 2 3 4 5 8 8 6 4 2 2 3 4 2 4 6 3 2 4 2 1 5 5 4 2 2 4 3 2 1 2 2 2 2 1 1 1 1 1 1 3
17 16 16 16 16 16 16 14 9 5 5 7 7 15 20 22 14 5 2 2 5 6 8 8 6 2 3 3 5 6 7 11 15 14 12 9 5 5 5 2 3 3 2 2 2 2 3 3 1 2 4 3 4 7 8 6 5 2 2 4 3 5 7 4 2 3 5 3 4 5 5 4 3 5 4 2 2 2 1 1 1 1 2 1 1 2 3 4
17 16 16 15 16 16 15 14 10 6 6 9 7 10 15 18 18 15 10 4 4 4 5 10 9 3 2 6 5 8 12 16 14 12 12 7 2 2 4 2 2 3 4 4 3 2 2 3 3 3 3 2 3 5 7 8 8 7 5 6 4 4 6 5 2 3 6 6 6 6 6 4 4 5 4 3 2 2 1 2 2 2 3 2 3 3 4 4
17 17 16 16 15 15 15 13 10 7 6 10 9 7 6 8 11 15 19 15 6 2 1 5 6 3 3 6 8 12 15 13 8 10 12 6 0 2 5 4 3 4 4 2 2 2 1 3 4 5 5 3 3 2 3 5 8 10 9 9 8 6 5 4 2 2 3 8 7 5 5 4 4 4 4 3 3 3 2 2 2 2 2 2 3 3 4 4
17 17 16 16 15 14 13 11 8 6 6 10 10 5 2 2 4 5 9 11 4 3 1 3 0 1 3 5 9 14 12 6 2 8 14 8 0 1 4 6 5 5 4 1 1 2 2 5 3 3 3 1 1 2 2 6 12 12 11 10 9 9 5 2 2 3 1 6 5 3 6 5 4 3 3 3 2 2 2 2 2 2 2 3 3 4 5 5
18 17 16 16 15 13 12 9 6 4 5 10 11 5 2 3 2 1 1 3 1 3 0 3 3 2 5 5 9 11 5 3 3 8 17 10 1 2 3 5 6 5 3 1 0 2 4 6 2 2 2 4 3 4 3 10 14 12 11 10 8 7 5 3 2 4 2 5 3 2 6 5 3 2 2 2 2 2 2 3 3 3 3 3 4 5 5 4
18 17 16 16 13 10 9 6 4 3 6 10 11 4 3 5 4 4 3 3 0 0 2 4 1 3 5 4 6 7 1 3 6 9 18 12 3 3 2 5 6 2 4 1 2 4 5 4 2 4 2 2 1 0 6 13 12 10 8 9 7 5 6 4 4 5 4 3 2 1 4 3 2 1 3 3 3 2 3 4 4 4 4 4 5 6 5 5
18 17 16 14 9 6 4 2 1 2 6 10 9 5 5 6 8 7 5 4 1 2 2 3 1 3 6 2 7 8 3 4 4 8 17 11 3 3 3 5 5 3 5 4 5 6 4 2 4 3 1 3 5 6 12 12 7 6 6 8 7 4 4 3 3 6 6 4 5 3 4 2 2 1 2 4 4 2 3 4 4 4 5 6 5 5 5 6
17 16 15 11 6 2 2 3 1 3 6 8 7 6 6 8 10 7 4 3 1 2 1 1 1 1 3 2 8 7 2 2 1 6 15 8 2 2 3 4 5 5 5 5 9 8 5 2 4 1 1 4 9 9 11 10 5 5 4 6 9 5 5 6 4 5 7 7 5 4 4 1 2 2 3 3 3 3 3 3 4 4 5 5 4 4 5 6
16 16 14 9 4 1 2 3 1 3 6 6 6 5 6 9 9 4 4 3 3 3 2 1 1 2 4 3 7 4 1 2 1 4 9 6 2 1 3 1 4 5 3 5 10 8 4 3 2 3 3 6 10 7 4 6 6 4 4 3 8 10 11 9 5 3 5 4 2 4 3 2 2 4 5 2 2 4 2 3 6 6 5 5 5 6 6 6
15 15 12 6 1 2 3 2 1 3 4 4 4 5 7 9 7 3 4 4 3 4 5 4 0 5 8 4 5 2 2 3 2 4 8 7 3 2 3 3 2 3 1 4 6 4 3 5 3 4 7 9 10 6 4 2 8 4 2 2 8 12 12 8 4 4 3 1 1 3 4 2 3 4 7 4 4 5 4 5 7 6 5 5 6 7 6 6
14 14 10 5 0 4 2 2 3 4 1 3 4 7 9 8 6 4 3 4 4 2 4 4 2 7 8 6 6 2 2 5 4 6 10 8 5 2 5 4 2 2 1 2 3 2 3 6 7 3 7 8 7 5 4 2 7 2 1 4 8 11 10 7 7 5 2 2 2 4 4 1 3 3 4 3 5 7 7 8 7 6 6 7 7 7 7 7
12 12 9 4 1 4 2 1 4 4 1 3 7 8 9 8 5 3 4 3 3 2 1 2 3 6 7 7 7 5 1 4 3 6 10 10 7 4 7 4 3 4 3 3 4 1 2 5 6 3 5 6 2 0 3 2 7 1 1 6 7 9 8 6 8 5 2 3 2 5 4 2 4 4 4 2 5 9 10 10 9 8 7 7 8 8 8 6
9 10 8 3 2 2 2 2 2 2 2 6 8 8 9 7 3 3 5 2 2 1 1 2 4 5 7 7 7 5 3 3 3 5 9 9 9 6 6 1 6 12 10 6 7 1 1 2 1 1 4 3 1 2 4 2 6 3 5 9 8 8 8 7 6 4 4 4 1 4 4 1 3 4 2 1 3 8 9 9 9 8 7 7 7 7 7 5
7 8 7 2 2 2 3 2 1 3 5 7 8 9 8 5 4 6 5 0 2 2 0 3 3 3 7 8 6 6 6 5 3 5 6 5 8 7 4 1 5 11 8 9 9 3 1 2 1 2 3 2 2 2 1 4 9 8 7 9 8 7 6 5 4 4 5 2 4 4 3 1 1 4 2 3 4 5 6 5 6 6 7 7 6 5 6 6
6 7 7 4 0 2 2 1 3 7 7 8 9 7 5 3 4 6 2 3 1 3 3 3 3 4 7 5 4 6 6 5 6 6 6 5 6 8 5 3 3 5 5 7 7 5 5 4 2 1 1 1 4 6 7 5 7 6 5 6 7 5 5 4 4 4 4 2 5 3 3 1 2 4 3 4 5 4 4 4 5 5 6 6 5 5 5 5
5 6 8 7 2 1 1 3 7 8 8 9 7 3 4 4 4 3 1 3 1 2 2 2 3 4 5 3 3 6 4 4 5 5 4 4 5 5 4 2 1 3 4 3 3 5 5 2 2 2 1 3 5 7 6 6 5 5 5 5 5 3 4 3 2 3 1 3 4 2 1 1 4 5 4 4 6 5 4 5 4 5 5 5 5 5 5 5
4 6 8 9 5 2 4 7 9 9 8 8 4 4 6 5 2 1 3 3 1 2 1 2 3 3 4 4 4 5 3 3 4 4 3 2 4 3 2 2 2 2 2 1 1 4 3 2 6 7 4 4 5 6 3 1 2 5 5 4 4 4 3 1 1 2 1 3 3 3 2 1 4 4 4 5 5 5 5 5 5 5 5 6 5 5 5 3
3 5 7 9 7 5 6 9 10 9 7 4 4 5 7 4 1 1 2 2 1 2 2 1 4 4 3 3 3 3 3 4 4 4 4 3 5 4 3 5 6 3 3 3 2 3 3 3 6 5 2 4 5 3 4 4 4 3 2 4 4 4 4 4 3 2 2 1 2 3 1 2 2 2 4 5 4 4 3 3 3 3 4 5 4 4 4 4
4 5 7 8 8 5 6 8 9 8 5 4 6 5 5 1 3 1 1 4 1 2 3 1 3 4 4 3 3 2 2 2 4 5 5 4 3 3 3 5 6 4 3 3 1 1 3 2 4 3 2 3 4 2 1 5 4 1 1 4 2 2 4 4 3 4 4 1 0 2 3 3 3 2 3 2 2 2 3 4 3 3 4 3 3 4 5 5
6 6 7 8 7 4 5 7 7 5 4 5 7 4 2 3 3 2 2 1 1 0 2 2 3 4 4 4 4 4 2 2 3 4 3 3 1 2 2 2 3 3 2 3 2 1 2 2 4 4 3 4 3 2 3 3 2 1 2 2 0 2 6 6 2 1 3 2 1 1 2 4 2 2 4 4 2 2 5 5 4 5 5 4 5 5 5 5
6 5 6 9 8 4 4 6 7 4 3 6 6 2 2 2 2 2 1 1 1 2 3 1 1 2 2 2 3 5 4 2 3 3 2 2 2 3 3 3 2 1 1 3 3 0 2 3 3 4 4 3 2 2 4 3 3 3 2 3 2 3 5 5 2 3 4 1 3 2 2 4 2 2 3 3 2 2 3 4 4 4 3 5 4 5 4 4
6 4 5 9 8 4 5 6 6 4 5 6 5 1 1 0 0 1 1 2 1 2 4 2 0 0 1 0 2 5 4 3 3 3 2 1 1 2 2 3 2 1 2 1 2 1 2 4 3 2 2 3 4 3 3 4 4 3 3 3 3 3 2 2 3 2 2 1 3 4 3 3 3 3 3 2 6 5 3 3 2 0 2 4 4 5 5 5
5 3 3 8 7 4 6 6 5 5 6 5 2 1 1 1 1 1 1 1 1 2 3 1 0 2 1 2 1 3 3 2 2 2 2 1 2 2 2 2 2 2 3 2 2 1 2 3 1 1 1 2 4 4 1 3 4 4 3 2 2 3 3 2 2 3 3 2 2 3 3 3 5 5 4 7 8 7 5 3 3 4 2 2 3 4 5 4
3 2 2 5 5 4 5 4 5 7 5 3 3 2 0 1 1 1 1 1 1 1 1 1 1 2 1 1 0 1 2 2 1 2 1 1 2 1 1 1 1 4 4 2 3 1 2 3 2 1 2 1 2 2 0 1 1 2 2 2 1 2 2 2 2 2 3 3 3 1 2 5 5 3 5 6 6 7 7 5 5 5 4 4 4 4 4 4
2 2 1 4 3 1 2 6 6 5 4 3 1 1 0 1 1 2 3 2 1 1 1 2 2 2 2 1 1 0 2 3 2 2 1 1 2 1 1 1 2 3 3 3 4 1 1 3 3 2 3 1 1 2 1 1 1 2 1 1 2 2 3 4 1 1 2 3 3 3 1 6 5 2 3 4 3 5 5 4 5 5 5 4 4 4 4 4
3 2 1 5 3 3 3 6 2 2 4 2 1 0 1 1 2 1 1 2 1 1 2 1 2 2 2 1 1 1 2 2 2 2 1 0 1 1 1 1 2 1 1 2 1 1 2 4 4 3 1 1 2 2 0 0 0 3 1 0 3 2 4 5 2 2 1 2 2 3 1 6 5 1 3 4 3 4 4 4 4 4 5 5 5 5 4 4
3 3 1 6 2 4 6 5 2 3 2 2 2 1 2 1 2 1 0 1 0 0 1 1 0 1 1 1 1 2 2 2 1 1 0 1 1 1 0 2 1 0 2 1 1 0 2 4 4 2 3 3 3 3 2 2 2 2 1 0 3 1 2 4 4 3 3 2 2 2 2 5 5 3 2 3 3 3 4 5 5 4 5 5 5 5 4 4
3 3 1 5 1 4 4 3 2 2 1 2 2 2 2 1 2 1 1 1 1 1 1 0 1 0 1 1 2 1 1 1 1 1 0 1 0 1 2 3 1 1 2 1 1 1 1 2 4 4 3 4 5 5 4 2 1 1 2 1 2 2 4 3 2 4 1 3 5 4 3 6 5 3 2 2 3 3 5 5 5 5 5 4 4 4 4 4
3 1 1 5 5 5 3 4 6 4 2 1 3 1 2 1 1 1 1 1 1 2 1 0 0 1 1 1 2 2 2 1 1 1 1 0 2 1 3 4 3 1 1 2 3 1 2 2 3 5 4 2 2 2 3 3 2 1 1 1 1 3 4 2 2 3 1 3 4 4 5 5 5 3 2 2 2 3 6 5 4 5 5 5 4 4 4 4
2 1 1 4 6 6 3 1 5 6 4 3 3 1 1 2 1 1 1 1 1 1 1 0 0 1 2 2 3 3 4 2 2 2 2 1 2 1 2 3 2 1 0 2 5 4 4 3 3 6 7 5 6 5 3 1 2 2 2 2 2 2 3 3 3 2 4 3 2 5 4 3 5 4 4 5 4 4 6 5 4 5 5 5 5 4 4 4
1 2 1 0 2 4 4 3 4 5 3 4 3 0 1 1 2 1 0 1 1 1 1 1 1 1 1 2 3 2 2 3 3 3 2 1 2 2 3 1 2 2 1 2 3 3 5 2 1 4 4 4 5 3 1 1 2 4 4 5 4 3 4 4 3 4 5 4 3 7 4 2 6 7 8 8 6 5 6 6 5 5 5 4 3 3 4 4
0 2 2 1 0 2 3 1 3 6 5 3 3 1 1 1 1 1 1 0 1 0 1 0 2 1 2 2 2 2 1 3 3 1 1 1 1 3 3 1 0 3 2 2 3 3 6 2 1 2 1 2 1 1 2 1 0 1 3 6 5 5 7 7 6 6 6 5 5 4 6 6 7 6 8 10 9 7 7 6 5 4 3 3 2 2 4 4
1 2 1 2 1 2 1 2 5 7 6 4 2 2 3 3 2 2 1 1 2 2 1 1 2 2 1 1 3 3 2 2 1 2 2 2 0 1 1 1 1 2 2 3 3 2 4 2 0 2 2 3 4 3 2 1 1 2 3 5 5 5 7 6 4 4 4 6 6 3 4 8 9 8 9 7 5 5 4 3 3 3 3 2 1 3 5 5
1 3 2 3 4 1 1 3 5 5 3 2 2 2 4 6 4 2 0 1 1 2 1 1 2 1 2 2 4 2 3 3 2 3 4 4 1 1 2 2 1 2 4 3 2 2 3 2 0 3 2 4 4 3 2 2 1 3 5 4 3 3 4 4 2 2 2 5 5 2 2 9 8 6 6 2 2 1 2 4 4 4 4 3 3 4 5 5
1 2 4 5 3 1 1 2 3 4 2 0 2 3 4 6 7 4 2 1 2 1 1 2 3 3 3 4 5 2 2 2 2 2 4 4 2 2 1 1 3 2 2 2 1 3 3 3 1 4 3 2 3 3 3 3 2 3 8 7 7 5 4 4 4 5 6 5 3 3 2 7 5 1 2 0 2 1 3 5 5 5 4 4 4 5 5 5
1 2 2 5 3 1 1 1 2 3 2 2 3 3 2 4 6 5 3 0 2 2 2 4 6 3 3 4 3 1 2 4 4 2 2 3 3 3 2 2 3 3 2 3 2 2 3 4 3 3 2 3 4 3 2 3 4 4 9 9 12 10 5 3 3 6 7 6 7 4 5 6 4 1 4 4 2 3 5 6 5 5 5 5 5 6 5 5
Wind_Direction
343 342 341 341 338 334 335 337 334 334 335 332 331 328 330 341 346 350 352 353 349 344 344 345 0 6 9 21 11 321 318 314 1 31 39 9 352 348 345 346 345 341 340 346 357 5 359 17 10 10 103 108 13 178 137 16 35 77 121 123 145 170 183 178 169 168 137 144 158 170 156 120 133 151 148 78 59 84 83 73 73 65 63 70 88 113 119 116
342 341 340 340 336 334 333 335 333 329 330 324 319 317 321 334 341 343 347 350 347 333 321 320 343 356 358 3 351 325 310 305 8 29 21 1 354 349 348 349 346 343 344 350 360 12 20 352 343 3 74 81 356 24 63 349 56 100 120 115 176 185 183 177 155 148 131 145 148 146 144 123 136 150 144 105 93 94 84 77 80 76 58 63 77 93 99 100
341 340 339 338 336 336 334 332 330 326 323 314 310 309 317 332 333 332 335 337 333 319 304 303 324 348 352 351 344 328 304 344 26 5 3 3 352 348 351 348 347 350 350 349 347 357 5 297 327 14 65 71 344 40 85 7 37 124 107 112 202 193 122 33 114 123 123 139 136 130 124 107 122 137 118 121 109 77 80 84 85 89 66 59 67 72 85 91
340 339 338 338 336 336 333 328 327 320 313 309 308 309 321 331 326 324 321 320 317 305 291 284 299 336 348 348 352 339 338 56 25 330 356 359 350 349 352 349 350 354 350 343 339 345 356 56 42 47 78 61 335 18 102 343 345 99 79 126 239 195 84 10 101 106 94 116 128 126 113 105 102 72 87 120 105 74 69 44 53 96 89 76 70 62 72 76
339 338 337 337 334 334 331 327 326 315 307 307 308 313 325 329 325 323 316 310 302 291 282 270 281 323 346 345 346 347 55 60 325 341 355 353 351 347 353 356 353 355 349 339 335 346 6 67 55 44 69 76 36 83 97 338 65 77 44 97 298 300 92 25 109 112 101 96 107 116 111 114 100 58 40 69 93 101 84 42 44 76 84 88 83 70 65 64
339 338 336 336 334 332 329 327 327 320 312 307 309 321 331 330 332 333 327 317 294 285 278 260 269 310 340 343 338 4 87 112 328 353 349 347 352 341 352 359 358 356 345 341 358 17 21 32 51 66 59 69 116 115 89 335 50 93 32 5 356 13 100 78 101 114 116 107 99 105 101 105 99 75 36 55 71 80 64 48 57 73 87 91 85 77 69 63
340 337 336 335 333 332 329 328 328 326 319 313 320 336 341 345 351 349 345 335 297 288 279 259 278 301 331 333 333 35 84 137 339 353 342 344 348 337 348 358 7 4 356 16 14 34 59 43 74 127 82 87 123 107 93 28 42 91 81 14 25 42 75 80 80 92 107 107 102 92 85 72 90 96 60 57 52 35 43 48 73 81 83 86 83 80 79 75
340 337 335 334 333 332 330 329 329 329 324 324 339 354 357 3 4 360 358 343 310 303 287 253 296 306 340 321 144 39 41 319 338 348 339 340 344 342 346 354 11 12 23 32 14 62 79 54 98 158 91 112 149 123 118 62 43 68 94 38 44 50 69 82 81 79 85 99 106 89 78 65 83 101 78 51 32 25 36 55 77 80 73 75 77 76 81 82
340 337 335 334 333 332 330 330 330 329 328 335 354 1 4 9 8 10 9 357 334 318 306 56 14 48 10 85 96 51 322 339 346 344 338 340 346 348 347 352 9 17 34 34 27 65 88 79 148 204 141 147 110 113 354 71 63 74 95 85 85 77 72 83 83 82 81 92 107 92 81 74 77 86 70 38 9 27 47 61 71 77 72 69 69 67 73 78
339 336 335 334 333 331 329 330 329 328 333 346 2 1 3 4 0 12 17 16 19 55 85 55 128 111 110 78 72 62 333 3 354 341 339 341 345 347 354 356 3 16 27 30 35 51 82 150 201 199 146 114 82 47 355 94 121 112 101 84 82 82 65 77 87 89 83 56 87 101 100 61 16 51 85 30 348 27 63 66 64 76 74 70 71 66 71 72
339 337 335 333 332 331 329 329 326 328 339 356 6 360 356 350 338 3 31 38 45 72 80 89 142 125 94 79 86 87 353 357 344 339 339 335 342 352 16 3 353 11 16 22 35 47 68 123 158 127 132 100 86 45 50 117 124 120 105 82 70 82 69 60 80 83 79 63 73 103 104 54 18 44 88 64 8 41 74 73 65 72 71 71 73 61 66 66
340 338 335 332 331 330 329 329 326 328 348 9 7 350 347 343 330 334 39 52 49 51 49 99 134 133 81 71 91 22 348 348 342 339 333 330 338 2 28 8 346 360 3 10 15 19 38 27 63 97 188 116 117 84 99 139 125 121 105 93 82 80 67 29 51 38 69 120 236 87 94 36 18 53 70 51 53 66 78 80 71 73 74 71 74 69 62 59
339 338 336 332 330 329 328 328 327 328 4 25 7 358 7 9 5 4 40 41 25 20 12 77 176 179 76 65 67 359 352 351 357 349 342 341 339 337 16 5 342 347 352 353 344 351 14 0 45 96 122 97 128 129 133 157 109 103 92 103 114 83 53 2 27 32 66 104 296 353 116 55 24 80 82 48 69 86 85 87 83 82 82 77 81 86 64 54
339 337 337 334 331 328 324 324 324 325 40 54 38 42 39 33 33 36 40 10 353 358 8 27 188 171 78 93 248 355 356 1 7 359 356 352 353 335 342 352 334 334 346 347 339 346 354 342 32 89 58 92 134 117 109 59 34 102 89 84 112 109 61 1 32 41 67 63 319 55 137 148 133 114 97 108 77 83 92 93 86 78 82 84 75 78 57 12
339 336 336 335 331 328 322 317 315 308 134 100 64 58 49 42 47 59 62 48 27 28 59 72 53 84 73 51 272 345 353 0 359 355 352 342 347 343 335 353 353 7 4 349 348 333 334 340 48 81 43 111 129 114 106 60 21 93 111 97 41 98 122 51 43 27 73 131 11 70 123 104 140 144 125 136 85 55 72 84 79 53 38 43 21 32 329 287
339 337 336 334 330 329 323 314 304 283 184 142 74 64 57 47 46 79 78 62 54 49 60 53 3 60 89 319 327 346 349 347 342 346 346 333 327 315 331 2 43 41 40 333 359 329 341 20 55 87 99 126 131 119 108 98 63 347 94 136 110 109 136 118 66 20 29 141 21 46 131 123 120 141 136 134 115 62 61 74 79 35 334 1 310 306 296 286
339 338 336 334 330 327 323 315 298 276 212 180 101 74 68 56 47 72 117 37 38 31 45 32 356 64 84 344 338 338 327 326 330 341 348 336 313 312 335 16 41 31 64 50 17 344 2 29 58 90 83 94 145 132 122 139 173 200 64 109 104 116 134 133 129 11 11 78 40 38 104 101 91 128 138 143 134 89 76 149 128 191 261 247 248 276 277 277
339 337 336 333 331 327 323 315 294 276 225 192 142 91 79 65 56 56 49 24 315 318 26 18 10 74 12 340 323 305 310 315 323 342 351 345 314 2 28 53 52 45 53 40 25 12 8 24 65 93 81 87 170 145 147 169 168 156 133 120 109 95 104 102 113 340 16 72 67 60 93 95 92 116 129 145 151 132 176 213 163 203 234 228 231 242 260 271
338 337 336 334 332 328 323 313 294 277 225 195 163 112 85 69 58 51 49 51 37 2 18 344 14 116 264 304 300 310 314 309 323 351 356 1 80 77 58 41 50 76 71 49 22 9 42 67 80 121 133 152 158 148 171 151 125 127 123 120 125 106 84 82 68 343 52 77 50 52 103 116 115 121 135 150 157 148 193 210 165 206 230 223 232 234 244 257
338 337 336 335 333 329 325 314 296 271 219 191 168 122 75 66 40 21 35 49 79 114 117 261 187 152 283 291 310 332 335 312 317 3 5 8 5 92 38 21 31 53 67 117 25 352 98 92 84 129 137 261 249 228 222 104 103 114 113 111 119 111 88 50 48 336 47 82 31 33 106 114 113 120 150 155 162 166 196 204 183 209 223 226 237 242 243 245
340 339 337 337 334 331 328 317 301 256 206 180 167 135 156 175 69 281 280 21 187 165 130 262 220 248 287 282 317 346 357 307 295 359 9 7 55 66 356 21 51 40 15 225 178 27 76 87 55 347 288 265 288 264 185 106 105 109 113 114 104 101 101 74 49 345 2 87 49 41 103 99 89 115 167 163 178 195 199 202 206 216 223 233 239 247 253 260
341 340 339 339 337 338 334 323 309 234 189 172 169 149 153 169 138 148 142 77 28 240 302 292 271 294 296 278 334 351 17 346 330 349 3 3 30 62 1 43 74 65 345 348 112 72 67 72 0 334 288 226 354 288 110 100 105 107 115 119 104 116 121 86 33 14 14 91 101 96 98 81 38 111 178 196 206 210 199 204 206 208 222 229 229 240 248 261
341 341 343 343 345 350 353 359 351 192 173 172 171 147 133 143 139 133 99 89 34 346 342 338 3 332 334 8 359 355 38 31 338 331 351 1 34 63 82 59 68 70 7 34 103 109 100 21 326 326 256 118 89 96 101 92 85 97 116 124 126 156 130 85 38 51 55 84 118 118 88 53 316 328 201 203 205 216 203 210 215 211 223 226 228 238 237 240
341 343 347 350 358 12 49 62 82 156 163 172 165 143 143 146 143 130 82 87 355 313 225 293 179 353 339 329 346 358 70 34 306 323 349 14 74 38 82 85 72 57 16 60 89 92 94 348 319 1 120 112 101 93 100 101 73 55 78 120 139 146 92 98 133 98 71 65 87 97 75 8 265 249 248 204 186 229 218 216 237 232 230 237 255 256 236 231
342 345 350 1 17 106 110 67 80 156 156 161 156 153 150 147 147 121 80 79 351 302 301 324 155 12 331 308 343 348 160 359 337 315 346 23 60 42 75 77 79 61 3 64 81 80 58 338 337 90 83 94 99 83 70 112 107 62 32 96 137 126 103 112 139 104 68 51 38 77 92 276 263 226 237 199 179 236 206 207 236 237 229 228 245 248 237 236
345 345 354 13 31 160 125 44 112 152 157 171 171 160 144 144 150 125 85 63 358 302 336 348 22 354 340 332 339 342 86 358 311 347 8 18 5 110 84 351 54 92 111 77 82 87 6 342 13 92 103 90 91 80 352 80 111 89 4 98 125 115 112 124 116 76 84 146 332 63 123 244 301 233 225 211 224 249 221 213 230 231 229 224 230 236 231 234
346 347 358 20 79 171 154 342 182 164 174 222 190 156 143 141 143 135 85 37 4 342 358 335 329 356 342 331 343 63 97 307 315 17 17 12 348 61 70 15 23 38 221 112 72 33 349 4 13 41 99 89 90 84 343 19 107 95 312 115 119 112 116 119 91 81 123 147 4 21 92 107 309 259 252 236 227 250 249 242 244 229 224 227 231 236 231 228
349 351 2 25 102 187 215 337 175 186 278 196 166 150 150 146 142 125 85 56 337 355 45 304 326 351 334 340 17 73 173 297 15 356 345 14 17 56 69 49 92 52 1 107 98 15 343 21 7 347 79 83 100 130 302 56 87 111 182 109 107 103 104 98 87 89 90 95 23 341 34 74 276 278 324 335 217 239 245 242 249 245 233 229 234 241 240 233
354 358 7 35 116 167 193 159 182 219 201 163 149 145 153 143 125 71 68 85 299 333 115 342 347 340 338 358 19 35 5 2 69 315 329 22 26 55 85 100 103 72 38 63 97 104 327 53 13 354 73 91 159 266 253 112 90 162 142 99 85 77 75 71 82 99 59 67 196 309 2 89 268 285 342 49 223 238 238 235 244 249 251 247 243 247 247 242
359 5 15 30 155 141 149 162 204 183 163 154 147 149 144 119 74 56 46 224 286 327 12 27 355 327 2 13 357 5 25 14 353 336 354 25 8 30 78 244 92 79 50 57 71 54 6 50 87 81 77 169 159 57 327 108 118 141 119 89 78 60 56 59 52 80 63 15 245 286 337 100 275 284 224 189 219 223 224 241 257 260 267 270 269 269 259 248
9 12 19 18 177 170 150 145 160 162 158 150 150 146 122 60 60 83 70 243 268 334 354 18 352 359 20 30 352 353 20 2 349 14 17 11 6 17 30 3 42 63 41 45 51 30 20 23 10 53 75 147 110 71 35 48 97 110 99 98 91 48 26 36 8 37 80 271 260 279 315 122 215 258 232 231 248 225 198 216 250 268 275 283 290 287 274 262
23 25 25 23 37 168 158 152 153 154 153 146 137 100 81 36 25 90 281 303 349 329 337 335 332 1 355 10 16 344 349 356 5 47 36 14 37 32 29 34 40 53 34 17 34 31 17 5 359 344 4 60 87 90 43 6 34 84 105 99 90 62 21 33 356 3 139 233 267 275 286 228 236 243 237 251 259 245 219 215 243 273 285 298 307 301 290 277
42 39 31 28 43 96 131 145 149 148 152 145 104 42 77 72 19 242 286 333 9 306 318 298 306 328 332 4 11 333 355 18 357 38 53 51 63 43 19 42 62 116 94 61 54 43 22 351 18 12 356 17 62 107 105 1 60 105 125 109 104 113 82 109 199 342 266 244 277 267 242 253 270 263 222 229 250 248 242 242 248 255 268 286 295 296 300 306
68 51 33 31 51 88 124 142 148 146 146 125 65 47 66 68 240 227 306 276 246 323 336 302 314 331 10 36 345 315 35 37 357 23 28 32 47 19 349 9 21 53 104 87 56 66 84 44 17 12 330 358 28 90 139 134 112 110 138 117 123 140 137 165 177 174 217 258 301 274 240 188 221 245 212 224 260 275 273 278 271 264 267 276 288 304 336 0
98 69 43 36 50 85 127 147 150 142 129 84 61 62 80 140 232 186 256 249 246 330 310 318 12 21 5 348 341 342 38 25 12 33 29 31 48 17 347 340 356 24 81 94 58 76 91 32 335 315 292 11 22 347 60 88 92 137 134 91 84 163 138 131 150 165 171 137 345 234 232 220 211 261 289 293 304 338 351 347 5 346 312 326 359 356 9 16
119 83 53 38 42 75 135 156 156 141 116 82 63 57 129 191 206 160 181 223 121 332 312 339 44 50 350 319 344 349 345 18 32 39 26 26 35 7 357 294 316 18 73 112 112 130 109 39 330 332 13 38 30 332 15 66 126 140 77 92 213 148 121 109 110 82 96 125 222 239 266 298 308 279 327 24 73 17 1 356 356 332 323 17 29 3 3 6
134 95 57 34 30 62 135 159 160 141 95 80 78 88 208 202 175 163 164 52 111 100 79 50 6 37 338 322 334 327 337 6 30 44 25 3 20 7 353 298 285 33 51 119 120 224 114 93 7 27 61 23 347 51 40 56 117 102 127 183 161 100 101 100 97 17 43 142 266 316 274 298 319 249 321 31 138 268 332 338 328 328 2 35 14 349 352 349
151 120 64 30 23 65 119 139 148 123 77 68 70 105 200 177 342 189 164 119 134 58 76 113 274 45 185 130 324 315 343 3 6 46 56 5 33 33 5 316 292 45 337 20 106 4 72 90 5 20 101 318 347 64 40 7 36 81 141 163 116 113 126 74 107 122 93 167 285 316 300 267 210 217 270 219 200 219 248 300 308 167 50 21 352 345 347 351
161 133 41 11 15 75 119 138 131 79 64 72 84 216 179 225 298 246 173 116 117 68 76 155 178 65 113 127 247 302 359 36 17 60 98 62 42 66 63 343 303 327 324 345 105 40 49 87 19 318 242 301 11 49 24 337 8 46 57 23 42 126 156 124 112 145 138 151 249 312 329 268 225 210 200 206 205 193 195 222 210 201 246 295 303 324 329 333
163 98 14 356 20 91 117 114 75 53 61 104 169 189 125 247 287 318 328 16 63 79 75 187 158 79 96 127 169 303 25 54 54 67 78 60 62 50 33 27 302 310 316 11 77 52 25 72 131 301 339 22 67 41 205 233 19 62 32 336 11 64 123 136 83 69 106 136 178 254 311 267 250 201 184 215 212 186 180 188 201 228 259 260 261 274 284 293
139 51 331 346 3 174 81 59 50 49 84 107 143 166 97 155 146 346 346 25 45 308 355 155 148 115 137 111 56 176 62 45 40 73 72 24 64 58 306 148 179 289 323 38 53 53 60 82 121 96 26 77 183 290 225 200 201 154 160 220 154 116 119 118 45 343 83 117 166 155 251 270 266 196 208 247 226 202 198 176 191 240 255 255 262 250 245 261
92 72 290 345 330 202 70 55 40 55 97 95 15 312 342 104 107 17 351 37 29 295 356 79 124 104 133 126 75 156 113 60 24 56 89 354 57 184 261 108 161 222 75 76 341 267 130 99 91 83 52 137 247 269 177 22 145 134 122 98 130 119 109 119 178 241 92 70 147 132 233 271 276 249 236 261 260 239 231 197 204 247 252 250 263 264 261 261
98 145 244 352 326 164 78 55 349 24 60 261 291 328 344 60 107 79 288 25 347 262 20 26 140 65 143 167 113 141 125 94 70 54 140 259 278 223 150 61 108 149 68 95 248 319 82 84 83 52 321 324 329 328 1 27 63 118 229 137 133 124 85 132 165 158 132 164 154 108 273 268 283 303 266 265 282 265 236 214 214 243 262 256 259 274 283 281
112 160 143 10 2 162 89 99 144 62 296 287 5 12 335 333 144 119 232 251 240 159 111 127 244 38 137 133 94 142 183 107 86 1 100 166 296 76 69 30 11 36 30 15 328 16 59 101 105 83 20 349 346 344 336 320 299 195 210 156 130 101 88 124 141 80 89 200 151 129 235 257 280 318 330 338 337 282 248 232 214 227 258 268 268 279 285 291
90 134 314 14 52 91 105 159 146 128 162 92 63 6 349 19 201 183 196 221 200 170 140 112 224 95 108 82 63 43 3 95 119 348 48 28 310 14 36 1 6 60 9 336 346 28 116 121 118 120 132 172 220 254 255 241 241 248 183 142 125 111 115 150 124 74 293 225 145 154 219 264 293 316 328 323 325 249 244 246 232 232 251 269 278 290 298 305
101 87 323 353 32 59 69 136 109 116 153 132 92 337 47 75 295 285 143 179 173 151 84 10 188 95 81 72 69 34 0 25 84 101 99 337 291 299 354 0 42 68 231 23 28 61 105 85 84 132 155 179 188 207 240 199 157 205 203 175 166 139 131 111 95 139 196 170 185 222 216 295 295 250 235 261 248 228 240 251 258 253 256 262 264 276 292 294
108 124 130 288 7 47 46 21 68 104 149 144 124 209 173 117 320 343 138 213 154 125 19 39 85 106 149 133 98 76 355 0 30 82 114 259 267 288 319 33 69 351 338 63 34 69 103 93 95 120 145 196 190 195 301 43 156 192 185 173 169 148 133 126 149 194 162 121 275 255 195 222 265 229 214 231 229 230 243 244 249 253 253 260 268 286 298 296
77 154 138 141 161 97 84 87 115 106 102 110 110 117 124 76 319 233 216 333 89 70 336 18 33 47 175 165 117 119 94 27 29 63 154 211 268 333 354 80 329 330 11 41 0 87 110 124 196 101 63 270 255 345 348 16 200 214 191 188 180 164 167 178 200 199 159 163 240 235 176 210 250 237 218 218 212 212 222 227 237 254 274 294 305 293 290 289
72 119 65 16 108 152 125 117 124 110 103 106 104 129 150 161 210 239 260 27 359 346 45 225 297 355 55 123 103 127 169 120 92 238 190 150 205 340 69 117 308 345 59 52 6 71 114 110 46 91 41 343 350 353 359 45 349 299 245 211 187 180 190 197 218 211 187 215 231 191 203 246 251 233 224 223 212 209 227 266 275 273 280 285 257 254 263 269
118 150 160 59 75 107 31 63 101 99 81 82 108 152 157 158 180 217 155 86 339 327 5 234 266 35 64 91 90 106 216 183 160 209 164 127 147 205 172 190 190 31 36 55 6 357 81 103 73 90 63 342 344 358 12 60 107 274 275 241 185 182 208 221 245 195 200 253 243 170 273 275 260 226 224 274 26 144 255 287 277 260 247 227 233 253 255 258
40 142 144 107 82 1 358 40 95 108 102 108 154 166 173 178 181 161 116 172 196 217 271 170 145 99 55 63 76 75 246 199 151 184 164 135 141 172 183 201 161 114 32 69 19 0 67 114 75 71 80 288 333 5 330 353 52 280 276 243 194 180 193 205 213 192 179 184 165 130 256 269 276 262 186 339 30 152 239 261 263 262 236 201 217 241 241 242
102 78 113 105 86 324 133 71 62 117 169 208 146 159 193 196 183 147 105 161 186 171 206 168 144 113 64 72 87 139 210 177 155 161 154 110 89 93 87 75 104 126 150 122 58 16 100 132 154 107 125 265 323 352 302 358 23 286 265 226 195 196 207 206 232 229 201 156 134 161 218 239 273 268 166 181 211 216 232 238 233 244 231 203 213 226 233 240